Total_Precipitation_Accumulation
1.18 1.16 1.17 1.08 1.00 0.95 0.97 1.17 1.49 1.31 0.76 0.49 0.47 0.54 0.70 0.89 1.09 1.12 1.08 1.22 1.27 1.26 1.32 1.40 1.46 1.57 1.81 2.21 2.94 3.86 4.62 4.85 4.58 4.03 3.76 4.01 4.40 4.92
1.25 1.20 1.18 1.12 1.07 1.03 1.03 1.06 1.24 1.45 1.12 0.54 0.48 0.52 0.67 0.84 1.05 1.07 1.06 1.22 1.25 1.29 1.30 1.36 1.47 1.57 1.73 1.93 2.28 2.98 3.79 4.49 4.80 4.78 4.57 4.46 4.62 4.93
1.40 1.36 1.24 1.17 1.20 1.15 1.13 1.13 1.14 1.32 1.36 0.71 0.51 0.56 0.72 0.86 0.95 0.99 1.02 1.07 1.09 1.22 1.29 1.35 1.37 1.45 1.60 1.79 1.99 2.37 3.04 3.75 4.36 4.81 5.07 5.03 4.96 4.94
1.51 1.46 1.36 1.32 1.30 1.25 1.29 1.25 1.17 1.18 1.35 1.08 0.69 0.63 0.71 0.81 0.89 0.98 1.03 1.07 1.07 1.18 1.24 1.32 1.40 1.48 1.57 1.70 1.88 2.05 2.42 2.96 3.57 4.17 4.59 4.74 4.82 5.06
1.61 1.63 1.57 1.54 1.50 1.43 1.43 1.42 1.34 1.25 1.30 1.32 0.97 0.77 0.78 0.87 1.01 1.07 1.11 1.19 1.21 1.30 1.33 1.33 1.44 1.54 1.56 1.66 1.83 1.96 2.06 2.30 2.74 3.42 4.11 4.38 4.42 4.54
1.65 1.69 1.71 1.73 1.70 1.70 1.76 1.72 1.70 1.70 1.62 1.57 1.30 1.04 0.98 0.99 1.13 1.22 1.23 1.21 1.29 1.32 1.41 1.37 1.45 1.53 1.55 1.57 1.62 1.68 1.86 2.19 2.56 2.98 3.55 3.93 4.00 4.05
1.74 1.71 1.72 1.87 2.03 2.18 2.30 2.20 2.11 2.19 2.11 2.01 1.75 1.47 1.28 1.27 1.33 1.28 1.35 1.31 1.36 1.36 1.36 1.31 1.28 1.28 1.36 1.50 1.63 1.69 1.78 2.01 2.27 2.65 3.10 3.52 3.79 3.87
1.81 1.71 1.70 1.81 1.91 2.07 2.26 2.25 2.24 2.42 2.51 2.37 2.11 1.82 1.45 1.32 1.41 1.57 1.70 1.77 1.71 1.45 1.43 1.47 1.37 1.40 1.40 1.42 1.65 1.73 1.81 2.02 2.20 2.39 2.77 3.14 3.51 3.86
1.60 1.61 1.61 1.64 1.78 1.66 1.83 1.91 1.93 2.05 2.24 2.35 2.37 1.96 1.67 1.54 1.80 2.03 2.03 2.04 1.77 1.56 1.71 1.89 1.71 1.64 1.55 1.62 1.81 1.72 1.78 1.92 2.11 2.26 2.42 2.75 3.14 3.55
1.44 1.44 1.45 1.46 1.56 1.75 1.81 1.75 1.60 1.59 1.76 1.93 2.10 1.98 1.87 1.93 2.27 2.60 2.68 2.70 2.35 1.99 1.91 2.20 1.98 1.89 1.81 1.76 1.85 1.76 1.77 1.83 1.92 2.09 2.29 2.50 2.76 3.10
1.42 1.44 1.45 1.36 1.59 1.89 1.93 1.85 1.62 1.47 1.56 1.82 2.04 2.15 2.28 2.46 2.73 3.13 3.28 3.36 3.15 2.59 2.24 2.30 2.17 2.06 2.06 2.02 1.97 1.91 1.83 1.85 1.87 1.96 2.12 2.33 2.57 2.84
1.43 1.46 1.66 1.64 1.75 1.86 1.83 1.89 1.88 1.56 1.38 1.47 1.59 1.74 1.84 2.06 2.49 2.73 2.98 3.28 3.19 2.95 2.40 2.33 2.35 2.36 2.59 2.24 1.95 1.82 1.79 1.90 1.91 1.88 1.91 2.05 2.31 2.47
1.60 1.59 1.63 1.81 1.79 1.83 1.85 1.81 1.89 1.76 1.62 1.63 1.60 1.58 1.67 1.82 2.03 2.28 2.60 3.01 3.24 2.99 2.39 2.58 2.81 2.64 2.71 2.45 2.07 1.87 1.77 1.74 1.71 1.76 1.85 1.91 2.05 2.23
1.67 1.51 1.60 1.83 1.80 1.83 1.78 1.84 1.94 1.91 1.77 1.73 1.64 1.53 1.53 1.67 1.77 1.99 2.31 2.51 2.67 2.71 2.41 2.67 3.14 2.83 2.83 2.56 2.26 2.10 1.94 1.84 1.70 1.61 1.57 1.81 1.92 2.10
1.70 1.81 1.76 1.79 1.77 1.67 1.66 1.75 1.75 1.67 1.74 1.74 1.58 1.41 1.34 1.45 1.60 1.79 2.08 2.33 2.43 2.44 2.43 2.47 2.77 2.82 2.93 2.81 2.32 2.10 2.14 2.11 1.83 1.68 1.60 1.54 1.58 1.79
1.74 1.84 1.82 1.69 1.65 1.61 1.61 1.57 1.50 1.58 1.69 1.65 1.48 1.37 1.35 1.45 1.61 1.73 1.96 2.19 2.46 2.46 2.41 2.47 2.69 3.02 3.10 2.63 2.39 2.21 2.03 2.18 2.01 1.77 1.66 1.61 1.56 1.57
1.97 1.93 1.82 1.74 1.73 1.63 1.52 1.46 1.44 1.54 1.63 1.50 1.48 1.51 1.54 1.59 1.64 1.66 1.84 2.01 2.25 2.20 2.24 2.46 2.68 2.88 3.04 2.93 2.74 2.31 2.04 1.98 1.94 1.88 1.83 1.82 1.79 1.72
1.98 1.93 1.72 1.57 1.53 1.48 1.46 1.44 1.39 1.37 1.39 1.44 1.50 1.53 1.57 1.59 1.63 1.64 1.76 1.94 2.05 1.99 2.03 2.22 2.53 2.83 3.04 3.20 2.92 2.43 2.13 2.03 1.97 1.91 1.85 1.91 1.98 1.92
1.64 1.56 1.47 1.41 1.38 1.36 1.35 1.35 1.32 1.24 1.29 1.42 1.49 1.51 1.54 1.58 1.61 1.64 1.70 1.83 1.90 1.90 1.95 2.09 2.38 2.72 2.82 2.79 2.85 2.50 2.27 2.16 2.06 2.08 2.00 1.87 1.94 1.95
1.40 1.37 1.37 1.36 1.37 1.38 1.34 1.31 1.28 1.27 1.34 1.41 1.46 1.48 1.53 1.60 1.62 1.58 1.59 1.71 1.80 1.83 1.88 1.97 2.22 2.57 2.82 2.64 2.63 2.60 2.49 2.32 2.17 2.17 2.11 1.97 1.95 2.02
1.29 1.29 1.30 1.37 1.38 1.35 1.32 1.30 1.30 1.29 1.28 1.34 1.38 1.43 1.47 1.57 1.57 1.46 1.48 1.58 1.70 1.75 1.78 1.76 1.88 2.20 2.54 2.63 2.56 2.40 2.48 2.59 2.37 2.23 2.17 2.19 2.16 2.12
1.19 1.21 1.22 1.26 1.35 1.37 1.33 1.31 1.30 1.26 1.27 1.32 1.32 1.34 1.37 1.47 1.51 1.44 1.48 1.57 1.57 1.58 1.64 1.65 1.71 1.99 2.42 2.69 2.54 2.28 2.30 2.51 2.69 2.51 2.28 2.23 2.43 2.59
1.21 1.21 1.19 1.19 1.25 1.31 1.35 1.33 1.28 1.21 1.19 1.26 1.28 1.28 1.33 1.41 1.39 1.42 1.45 1.49 1.52 1.53 1.58 1.67 1.72 1.90 2.20 2.39 2.50 2.39 2.26 2.27 2.36 2.49 2.65 2.36 2.01 1.95